Area code 762 scam numbers list

Do you receive unwanted calls with the area code 762 and don’t know how to stop them? The best way to defeat an enemy is to find out who he or she is! Find the phone number in our database and check the name, mobile network provider and other information of the caller.

State: Georgia

Number Format: (762) xxx-xxxx

International Number Format: +1 762 xxxxxxx

Major city: Augusta

Time Zone: EST (UTC-05:00 ) / EDT (UTC-04:00 )

This info will give you a great advantage, as you can simply send a complaint to the scammer’s network provider. Basically, you can do anything you like with the information we share.

Don’t let 762 area code scams attack you and your family! They have no right for it. Take advantage of the opportunities our free phone number search provides you to stop unsolicited calls.


Number Call type Rating Last Update
762-585-7979 Unknown -10 2019-03-13 00:35:32
762-435-4327 Spam -3 2019-02-22 14:05:39
762-019-5734 unknown -5 2019-02-03 07:44:06
762-499-9947 unknown 0 2019-01-05 12:03:12
762-223-2384 scam -5 2018-12-21 08:35:16
762-212-5655 scam -5 2018-11-13 08:06:09
762-223-2461 spam -5 2018-10-29 14:52:00
762-212-5143 prank -2 2018-10-23 04:15:05
762-383-1815 unknown -5 2018-10-05 22:00:52
762-212-5740 unknown 0 2018-09-15 03:14:53
762-207-7617 unknown 0 2018-09-04 13:51:37
762-224-3528 unknown 0 2018-09-04 03:19:29
762-225-2011 unknown -1 2018-08-27 18:38:26
762-796-0427 harassment -5 2018-08-21 15:39:06
762-383-1630 Spam -2 2018-08-17 19:42:14
762-499-9949 unknown -5 2018-08-11 18:05:42
762-233-7837 Spam -5 2018-08-05 16:10:53
762-208-4256 Harassment -7 2018-08-04 16:02:11
762-221-3113 scam -5 2018-08-04 09:42:49
762-243-4003 Harassment -12 2018-08-04 04:37:59
762-208-4218 Harassment -5 2018-08-04 04:36:56
762-208-4249 Spam -10 2018-08-03 20:03:37
762-728-9026 Harassment -4 2018-08-03 18:01:08
762-208-2850 Harassment -3 2018-08-03 13:09:50
762-218-2974 Spam -5 2018-08-03 10:21:18
762-208-2078 Harassment -1 2018-08-02 23:08:36
762-208-4246 Harassment -3 2018-08-01 21:05:33
762-204-1684 Spam -5 2018-08-01 13:59:18
762-207-7171 Spam -5 2018-08-01 09:06:10
762-243-7799 Spam -2 2018-07-30 15:31:03
762-208-3363 Harassment -2 2018-07-30 15:04:22
762-359-7526 Harassment -1 2018-07-29 16:31:43
762-201-2697 unknown 2 2018-07-29 12:09:25
762-218-2751 Harassment -2 2018-07-28 18:04:31
762-208-3160 Spam -5 2018-07-27 15:36:48
762-793-4948 unknown 0 2018-07-27 11:35:21
762-208-3279 Spam -4 2018-07-27 09:12:00
762-728-9082 Harassment -6 2018-07-27 08:08:16
762-208-4286 Spam -7 2018-07-26 19:31:06
762-209-1781 Spam -2 2018-07-25 10:01:01
762-524-8404 Spam -1 2018-07-24 10:18:28
762-245-2041 Spam -16 2018-07-24 09:56:47
762-243-7057 Spam -24 2018-07-24 00:39:03
762-383-1845 Harassment -5 2018-07-22 19:24:59
762-728-8053 Spam -2 2018-07-22 09:57:39
762-208-7233 Spam -3 2018-07-22 04:36:36
762-208-4222 Spam -3 2018-07-21 22:17:01
762-323-7668 Spam -2 2018-07-21 14:11:54
762-204-4226 Spam -5 2018-07-21 03:59:01
762-435-8598 spam -5 2018-07-20 15:29:32
762-233-2476 Spam -44 2018-07-19 22:48:45
762-338-4689 Harassment -3 2018-07-19 05:58:26
762-323-6328 Harassment -12 2018-07-19 04:30:45
762-207-7438 Harassment -3 2018-07-18 19:56:53
762-215-2164 Spam -4 2018-07-18 11:37:45
762-202-6222 Spam -1 2018-07-18 08:52:38
762-208-0700 Spam -5 2018-07-15 09:31:13
762-236-1776 Harassment -3 2018-07-15 06:56:21
762-333-2758 Spam -51 2018-07-13 18:52:13
762-208-3345 Harassment -7 2018-07-13 18:18:10
762-359-2341 Harassment -2 2018-07-12 19:21:43
762-231-3059 Harassment -1 2018-07-12 16:04:40
762-208-3300 Spam -9 2018-07-12 12:02:11
762-208-2320 Spam -1 2018-07-11 22:27:39
762-323-0077 Harassment -2 2018-07-11 02:21:11
762-383-9265 Harassment -3 2018-07-10 16:50:34
762-208-4224 Harassment -1 2018-07-09 19:51:02
762-208-3202 Harassment -5 2018-07-08 20:11:02
762-208-3346 Harassment -3 2018-07-08 05:09:22
762-233-8476 Spam -4 2018-07-07 10:22:25
762-359-4559 Spam -9 2018-07-06 02:47:16
762-208-5029 Spam -1 2018-07-05 22:26:28
762-233-5567 Harassment -4 2018-07-05 20:14:51
762-208-4309 Spam -7 2018-07-05 14:10:51
762-359-2027 Spam -1 2018-07-04 06:44:51
762-338-6571 Harassment -5 2018-07-03 19:42:18
762-208-3267 Spam -4 2018-07-03 19:42:13
762-435-6775 Harassment -8 2018-07-03 11:22:50
762-572-0845 positive 0 2018-07-03 07:41:12
762-338-1343 Harassment -5 2018-07-03 01:52:48
762-215-8443 Spam -4 2018-07-02 13:32:20
762-333-2825 unknown 0 2018-07-01 22:49:12
762-243-7796 Harassment -4 2018-07-01 07:20:17
762-218-3703 Spam -1 2018-06-30 05:04:56
762-208-4241 Spam -3 2018-06-29 04:39:49
762-231-3929 Harassment -2 2018-06-29 03:36:54
762-359-0959 Harassment -2 2018-06-29 02:35:57
762-499-2972 Spam -8 2018-06-27 01:45:52
762-585-8395 Harassment -8 2018-06-26 16:58:57
762-233-6568 Harassment -2 2018-06-25 23:50:15
762-435-3484 Spam -4 2018-06-25 14:43:08
762-435-6717 Spam -2 2018-06-22 19:44:11
762-675-1205 unknown 0 2018-06-22 12:56:35
762-524-8569 Spam -1 2018-06-22 01:22:24
762-206-5426 Harassment -3 2018-06-21 19:46:02
762-436-2636 Spam -4 2018-06-21 09:35:38
762-233-2750 Spam -11 2018-06-21 09:28:52
762-224-0411 unknown 0 2018-06-20 08:24:57
762-354-0816 Spam -5 2018-06-19 14:36:21
762-323-2128 Harassment -5 2018-06-19 05:32:32


Telephone numbers with the same dialing code



Recent comments

Linda M, 2019-04-10 04:54:49

Number: (202) 847-5198

Call type: Scam

Rating: -5

Among loud noise of many voices in background, woman with heavy Asian-sounding accent told me she was calling from the “United States Federal Branch Department” (which is not a real department, I checked) and informed me I had been selected to receive $14k which I would never have to pay back or pay any taxes on. I replied that I knew this was a scam, said to stop calling me and hung up.

Carl, 2019-04-08 09:09:27

Number: (615) 643-7890

Call type: Unknown

Rating: -5

When I look up this number it comes up under someone I used to know but when called the number it says it has been disconnected. Not sure how that works, but I get a call from this number about every other week.

Morgan, 2019-04-08 09:01:22

Number: (636) 896-8215

Call type: Scam

Rating: -3

Says they're from Burke's Financial Credit Union, addressed someone not an employee of my company, whose phone they called. Threatened repo after numerous attempts to get in contact.

SUZY, 2019-04-08 03:21:41

Number: (662) 640-4158

Call type: Scam

Rating: -5

This matter is very serious emergency and time sensitive we are calling you from investigation team of I.R.S. We have just received notification regarding your tax filings from the headquarters which will get expired in next 24 working hours and once that get expired after that you will be taken under custody by the local cops as there are 4 serious allegations pressed on your name at this moment we would request you to get back to us so that we can discuss about this case before taking any legal action against you the number to reach us is 662-640-4158 I repeat 662-640-4158 thank you.

Konnor, 2019-04-05 09:20:25

Number: (847) 719-9897

Call type: Harassment

Rating: -3

I told them not interested and to remove me immediately from their calling database.

Chandler, 2019-04-05 03:07:42

Number: (909) 280-5823

Call type: Harassment

Rating: -2

They call and call and call and call .

Blaise, 2019-04-05 03:01:08

Number: (770) 637-6574

Call type: Harassment

Rating: -4

Wanted access to my computer, said I was infected and that it would shut down in 24 hours.

Moises, 2019-04-04 22:42:03

Number: (858) 879-1610

Call type: Harassment

Rating: -2

They constantly call with recorded message trying to sell some sort of security system.

Alfonso, 2019-04-04 21:40:03

Number: (631) 867-9056

Call type: Harassment

Rating: -1

Most recently they have called on 12-21-1:50 PM, Dec 23-11:57AM

Charleigh, 2019-04-04 18:13:27

Number: (617) 714-1060

Call type: Harassment

Rating: -1

ANSWERING MACHINE ANSWERS AND NO MESSAGE OR INFORMATION IS LEFT, LINE GOES DEAD.

2015-2019 Reverse phone lookup US © All Rights Reserved